1st Responders/1st Detectors/Storm Spotters Weather Summary for Powell County, KY

Forecast Maps


Reg. NEXRAD Animation


National Fire Danger: Day 1 & 2 Map

Current NWS Watch/Warnings

SPC Convective Day 1 Outlook


Day 2 Outlook

(Click images to enlarge|Page will refresh every 5 minutes)
UK Ag. Weather Center Desktop Severe Weather Service[HERE]
Powell County, KY Hazardous Weather Outlook Webcast
(9 AM to 9 PM Mon-Fri)
[Fast]
[Dial-up]


UKAWC 1st Detectors/1st Responders Precision Weather Forecast For POWELL County, Kentucky
(based on the NWS County Digital Forecast)

ISSUED AT 01:00 UTC ON TUESDAY MAR 31 2020
DAY MONDAY TUESDAY
EDT 3HR 10P 11P MIDN 1A 2A 3A 4A 5A 6A 7A 8A 9A 10A 11A NOON 1P 2P 3P 4P 5P 6P 7P
MAX/MIN -- -- -- -- -- -- -- -- -- -- 43° -- -- -- -- -- -- -- -- -- -- 49°
TEMP 54° 50° 49° 47° 47° 45° 45° 45° 45° 43° 43° 45° 45° 45° 47° 47° 49° 49° 47° 47° 47° 47°
SKY COVER 54% 56% 58% 62% 68% 79% 91% 100% 100% 100% 100% 100% 100% 100% 100% 100% 100% 100% 100% 100% 100% 100%
Clouds
DEW PT 38° 40° 38° 38° 36° 36° 36° 34° 34° 34° 34° 34° 34° 34° 34° 36° 36° 36° 36° 36° 36° 36°
RH 56% 65% 65% 71% 67% 68% 67% 67% 68% 70% 70% 68% 67% 65% 62% 62% 61% 61% 65% 65% 68% 65%
POP 12HR -- -- -- -- -- -- -- -- -- -- 9% -- -- -- -- -- -- -- -- -- -- --
RAIN/SNOW (liq.equ) -- -- -- -- 0.00in -- -- -- -- -- 0.00in -- -- -- -- -- 0.01in -- -- -- -- --
SNOWFALL -- -- -- -- 0in -- -- -- -- -- 0in -- -- -- -- -- 0in -- -- -- -- --
WIND SPEED(MPH) 2 2 2 2 2 2 1 2 1 2 5 5 5 5 5 5 5 5 6 6 6 6
WIND Gust(MPH) 5 5 5 5 5 5 2 5 2 5 7 7 7 7 7 7 7 7 7 7 7 7
WIND DIR NW NW N N NE NE NE NE NE NE NE NE E E NE NE NE N N N N N
DEW -- -- -- Lgt Dew -- Lgt Dew -- -- -- -- -- -- -- -- -- -- -- -- -- -- -- --
HeatIndex 54 50 49 47 47 45 45 43 45 42 41 42 42 45 47 47 49 49 47 47 47 47
Rain -- -- -- -- -- -- -- -- -- -- Slight Chance Slight Chance Chance Chance Chance Chance Chance Chance Chance Likely Chance Chance
Rain Showers -- -- -- -- -- -- -- -- -- -- -- -- -- -- -- -- -- -- -- -- -- --
WIND CHILL -- -- -- -- -- -- -- -- -- -- 40° 43° 43° 43° -- -- -- -- -- -- -- --
SPRAY COND
DRY COND
LIVESTOCK COLDSTRESS



DAY TUESDAY WEDNESDAY THURSDAY FRIDAY SATURDAY SUNDAY MONDAY
EDT 6HR 8P 9P 10P 11P MIDN 1A 2A 3A 4A 5A 6A 7A 8A 9A 11A 2P 5P 8P 11P 2A 5A 8A 11A 2P 5P 8P 2A 8A 2P 8P 2A 8A 2P 8P 2A 8A 2P 8P 2A 8A 2P 8P
MAX/MIN -- -- -- -- -- -- -- -- -- -- -- -- 38° -- -- -- 52° -- -- -- -- 38° -- -- 63° -- -- 38° 68° -- -- 43° 70° -- -- 49° 68° -- -- 49° 72° --
TEMP 45° 45° 43° 43° 43° 41° 41° 40° 40° 40° 40° 38° 38° 40° 43° 49° 52° 49° 45° 41° 40° 38° 50° 61° 63° 54° 43° 38° 65° 59° 47° 45° 68° 65° 54° 49° 67° 61° 52° 50° 70° 65°
SKY COVER 100% 100% 100% 100% 100% 100% 100% 100% 100% 100% 100% 100% 100% 100% 100% 100% 99% 100% 57% 10% 9% 27% 30% 24% 28% 25% 25% 33% 25% 32% 41% 55% 47% 59% 66% 67% 50% 55% 66% 63% 66% 75%
Clouds
DEW PT 36° 34° 34° 34° 36° 36° 38° 38° 38° 38° 36° 36° 36° 36° 38° 38° 38° 38° 38° 36° 36° 34° 38° 38° 36° 40° 36° 36° 40° 41° 38° 40° 47° 45° 47° 45° 49° 47° 45° 45° 54° 54°
RH 67% 68% 70% 73% 76% 81% 85% 88% 89% 92% 89% 89% 89% 85% 82% 65% 58% 65% 76% 79% 85% 85% 61% 44% 37% 56% 78% 92% 40% 51% 70% 85% 45% 50% 74% 89% 51% 60% 76% 82% 57% 67%
POP 12HR 57% -- -- -- -- -- -- -- -- -- -- -- 20% -- -- -- -- 1% -- -- -- 0% -- -- -- 0% -- 0% -- 0% -- 2% -- 12% -- 29% -- 29% -- 23% -- 23%
RAIN/SNOW (liq.equ) 0.07in -- -- -- -- -- 0.00in -- -- -- -- -- 0.00in -- -- 0.00in -- 0.00in -- 0.00in -- 0.00in -- 0.00in -- 0.00in -- -- -- -- -- -- -- -- -- -- -- -- -- -- -- --
SNOWFALL 0in -- -- -- -- -- 0in -- -- -- -- -- 0in -- -- 0in -- 0in -- 0in -- 0in -- 0in -- 0in -- -- -- -- -- -- -- -- -- -- -- -- -- -- -- --
WIND SPEED(MPH) 7 7 6 6 6 5 5 5 6 7 6 6 6 7 2 5 2 1 0 0 0 0 0 0 1 0 0 0 1 0 0 0 1 0 0 0 2 0 0 1 2 1
WIND DIR N N N N N N N N N N N N NW NW N N NW N N N N N NE N N N E E E NE E SE SW N W W W NE SE S SW S
HeatIndex 45 41 40 39 39 39 39 38 37 35 35 34 34 36 42 49 52 49 45 41 40 38 50 61 63 54 43 38 65 59 47 45 68 65 54 49 67 61 52 50 70 65
Rain Slight Chance -- -- -- -- -- -- -- -- -- -- -- -- -- -- -- -- -- -- -- -- -- -- -- -- -- -- -- -- -- -- -- -- -- -- -- -- -- -- -- -- --
Rain Showers -- -- -- -- -- -- -- -- -- -- -- -- -- -- -- -- -- -- -- -- -- -- -- -- -- -- -- -- -- -- -- -- -- -- Slight Chance Chance Slight Chance Slight Chance Slight Chance Slight Chance Slight Chance Slight Chance
WIND CHILL 41° 41° 39° 39° 39° 38° 38° 37° 36° 35° 36° 34° 34° 35° -- -- -- -- -- -- -- -- -- -- -- -- -- -- -- -- -- -- -- -- -- -- -- -- -- -- -- --
SPRAY COND
DRY COND
LIVESTOCK COLDSTRESS

Click on individual weather variable above in left-hand column (ie., TEMP, RH, QPF 12HR) to view state forecast maps






NWS 48 Hr. Forecast Maps,

Regional Hourly Observations For POWELL County, Kentucky
Issued at 900 PM EDT MON MAR 30 2020
NORTHEAST KENTUCKY
  
CITY           SKY/WX    TMP DP  RH WIND       PRES   REMARKS
LEXINGTON      FAIR      53  30  41 NW8       30.09R                  
COVINGTON      FAIR      52  36  54 N10       30.09R                  
FRANKFORT      FAIR      55  32  41 NW3       30.08R                  


Current NOWCAST not available:
Nowcasts are not issued routinely during fair weather. Only when
precipitation or other significant weather is occuring in this county will these
forecasts be issued. Currently, there is no short term forecast in effect.


Fire Weather Forecast For POWELL County, KY
Provided by the National Weather Service:

Issued at: Mon Mar 30 21:05:01 EDT 2020

                      Tonight      Tue          Tue Night    Wed          

Cloud Cover           Mcldy        Cloudy       Cloudy       Cloudy       
Chance precip (%)     0            40           0            0            
Precip type           None         rain         None         None         
Temp (24H TREND)      39-44 (-5)   48-49 (-14)  37-39        50-51        
Rh % (24H TREND)      67-89 (+25)  54-59 (+30)  89-96        52-55        
20ftwnd-AM(mph)                    Lgt/Var                   NW 3-7 G13   
20ftwnd-PM(mph)       NW 2-6       N 2-6        N 3-7        NW 2-6 G13   
Precip duration                    1                                      
Precip begin                                                              
Precip end                                                                
Precip amount         0.00         0.06         0.00         0.00         
LAL                   1            1            1            1            
Haines Index (MID)                 2                         2            
Mixing hgt(ft-AGL)                 2500                      4600         
Transport wnd (mph)                SW  2                     N  9         
Vent rate (kt-ft)                  3930                      37441        
ADI Early             5 Very Poor  12 Poor      10 Poor      30 Fair      
ADI Late              12 Poor      19 Gen Poor  16 Gen Poor  28 Fair      
Max LVORI Early       3            3            4            5            
Max LVORI Late        3            3            6            2            

REMARKS...RANGES OF MIN T EXCEEDING 8 DEGREES & RANGES OF MAX RH        
EXCEEDING 10% INDICATE THE LIKELIHOOD OF THERMAL BELTS. ADI IS        
ATMOSPHERIC DISPERSION INDEX BY LAVDAS. DISPERSION INDEX IS        
MAGNITUDE OF VENT RATE DIVIDED BY 1000.


SPC's Fire Weather Web Tool (Excellent!), SPC's Fire Weather Outlooks, NWS Fire Weather WEB, Fire Danger Class Map,
Keetch-Byram Drought Index, ROMAN Web, Haines Index ,
WFAS's 10-hr Dead Fuel Moist., WFAS's 100-hr Dead Fuel Moist., Probablity of Ignition, Visual blackness Map, Palmer Drought Index, HPC's Rainfall Forecast Maps


Hazardous Weather Outlook For POWELL County, Kentucky
705 PM EDT Mon Mar 30 2020

 DAY ONE  Tonight.

No hazardous weather is expected at this time.

 DAYS TWO THROUGH SEVEN  Tuesday through Sunday.

No hazardous weather is expected at this time.

 SPOTTER INFORMATION STATEMENT  

Spotter activation is not anticipated.

Latest POWELL County, Kentucky Watches, Warnings and Advisories.
Additional Drought Info.: UKAWC Drought Page, Kentucky Drought Watch


7-Day Forecast For POWELL County, KY

TONIGHT
Mostly cloudy. Lows in the lower 40s. Light winds.

TUESDAY
Cloudy. A chance of rain, then rain likely late. Highs in the upper 40s. Light winds. Chance of rain 70 percent.

TUESDAY NIGHT
Cloudy. A 20 percent chance of rain in the evening. Lows in the upper 30s. Light winds.

WEDNESDAY
Cloudy. Highs in the lower 50s. Light winds.

WEDNESDAY NIGHT
Mostly cloudy in the evening then clearing. Lows in the upper 30s. Light winds.

THURSDAY
Mostly sunny. Highs in the lower 60s.

THURSDAY NIGHT
Mostly clear. Lows in the upper 30s.

FRIDAY
Mostly sunny. Highs in the upper 60s.

FRIDAY NIGHT
Partly cloudy. Lows in the lower 40s.

SATURDAY
Partly sunny. Highs in the lower 70s.

SATURDAY NIGHT
Mostly cloudy with a 30 percent chance of showers. Lows in the upper 40s.

SUNDAY
Partly sunny with a 30 percent chance of showers. Highs in the upper 60s.

SUNDAY NIGHT
Mostly cloudy with a 20 percent chance of showers. Lows around 50.

MONDAY
Partly sunny with a 20 percent chance of showers. Highs in the lower 70s.

Ag Weather Center, Department of Biosystems & Agricultural Engineering, University of Kentucky